This is the latest recevied weather packets stored in our database for station/object W6SNO-1. If no packets are shown the sender has not sent any weather packets the latest 10 day(s).
| Time | Temp. | Humidity | Pressure | Rain* | Wind** | Luminosity | Snow |
|---|---|---|---|---|---|---|---|
| 1787701823 | 27.78° C | 45% | 1015.3 hPa | 0 mm | - | 380 W/m² | - |
| 1787701518 | 27.78° C | 44% | 1015.3 hPa | 0 mm | - | 287 W/m² | - |
| 1787701213 | 28.33° C | 44% | 1015.5 hPa | 0 mm | - | 409 W/m² | - |
| 1787700909 | 27.78° C | 44% | 1015.4 hPa | 0 mm | - | 438 W/m² | - |
| 1787700604 | 28.89° C | 45% | 1015.4 hPa | 0 mm | - | 334 W/m² | - |
| 1787700300 | 28.89° C | 46% | 1015.4 hPa | 0 mm | - | 375 W/m² | - |
| 1787699996 | 28.89° C | 45% | 1015.3 hPa | 0 mm | - | 400 W/m² | - |
| 1787699692 | 28.89° C | 44% | 1015.5 hPa | 0 mm | - | 464 W/m² | - |
| 1787699387 | 28.33° C | 46% | 1015.7 hPa | 0 mm | - | 483 W/m² | - |
| 1787699083 | 28.33° C | 45% | 1015.6 hPa | 0 mm | - | 484 W/m² | - |
| 1787698778 | 28.33° C | 46% | 1015.7 hPa | 0 mm | - | 342 W/m² | - |
| 1787698474 | 28.33° C | 46% | 1015.4 hPa | 0 mm | - | 526 W/m² | - |
| 1787698170 | 28.33° C | 47% | 1015.5 hPa | 0 mm | - | 540 W/m² | - |
| 1787697865 | 28.33° C | 47% | 1015.7 hPa | 0 mm | - | 546 W/m² | - |
| 1787697560 | 28.33° C | 49% | 1015.7 hPa | 0 mm | - | 559 W/m² | - |
| 1787697256 | 28.89° C | 47% | 1015.9 hPa | 0 mm | - | 571 W/m² | - |
| 1787696951 | 28.89° C | 48% | 1016 hPa | 0 mm | - | 584 W/m² | - |
| 1787696647 | 28.89° C | 48% | 1015.9 hPa | 0 mm | - | 571 W/m² | - |
| 1787696342 | 28.89° C | 47% | 1015.8 hPa | 0 mm | - | 614 W/m² | - |
| 1787696037 | 28.89° C | 47% | 1015.7 hPa | 0 mm | - | 613 W/m² | - |
| 1787695736 | 28.33° C | 47% | 1015.9 hPa | 0 mm | - | 628 W/m² | - |
| 1787695433 | 28.89° C | 46% | 1016 hPa | 0 mm | - | 643 W/m² | - |
| 1787695128 | 28.33° C | 45% | 1015.8 hPa | 0 mm | - | 653 W/m² | - |
| 1787694826 | 28.89° C | 46% | 1015.9 hPa | 0 mm | - | 668 W/m² | - |
| 1787694522 | 28.89° C | 46% | 1015.9 hPa | 0 mm | - | 646 W/m² | - |
* Rain latest hour (hover to see other rain measurements)
** Current wind speed in m/s (hover to see current wind gust speed)